This demonstration page uses our WeatherBlox Daily Observations layout. Learn more.

Left ArrowRight Arrow

44.31136, -96.79839

Hourly Observations for August 4, 2022

Temp ( °F °C ) Dew Point ( °F °C ) Humidity (%) Winds ( mph kmh ) Pressure ( in mb ) Visibility ( mi km ) Precip ( " mm )
12:56 am 00:56 Clear 59 15 58 14.4 96 96 Calm 30.06 1018 10 16 0.00 0.00
1:56 am 01:56 Clear 60 15.6 58 14.4 93 93 E 5 7 30.06 1018 10 16 0.00 0.00
2:56 am 02:56 Clear 57 13.9 57 13.9 100 100 S 3 6 30.07 1018 10 16 0.00 0.00
3:56 am 03:56 Clear 56 13.3 56 13.3 100 100 Calm 30.06 1018 10 16 0.00 0.00
4:56 am 04:56 Clear 57 13.9 57 13.9 100 100 SE 5 7 30.07 1018 10 16 0.00 0.00
5:56 am 05:56 Clear 52 11.1 52 11.1 100 100 Calm 30.08 1019 10 16 0.00 0.00
6:56 am 06:56 Sunny 56 13.3 54 12.2 93 93 SE 5 7 30.09 1019 10 16 0.00 0.00
7:56 am 07:56 Sunny 63 17.2 56 13.3 78 78 ESE 7 11 30.09 1019 10 16 0.00 0.00
8:56 am 08:56 Sunny 67 19.4 56 13.3 68 68 SE 12 19 30.08 1019 10 16 0.00 0.00
9:56 am 09:56 Sunny 72 22.2 57 13.9 59 59 SE 13 20 30.08 1019 10 16 0.00 0.00
10:56 am 10:56 Sunny 75 23.9 58 14.4 55 55 SSW 14 22 30.10 1019 10 16 0.00 0.00
11:56 am 11:56 Sunny 78 25.6 58 14.4 50 50 S 15 24 30.09 1019 10 16 0.00 0.00
12:56 pm 12:56 Sunny 80 26.7 57 13.9 45 45 SSE 15 24 30.07 1018 10 16 0.00 0.00
1:56 pm 13:56 Sunny 82 27.8 58 14.4 44 44 S 15 24 30.06 1018 10 16 0.00 0.00
2:56 pm 14:56 Sunny 84 28.9 59 15 43 43 SSE 13 20 30.04 1017 10 16 0.00 0.00
3:56 pm 15:56 Sunny 86 30 59 15 40 40 SSE 15 24 30.02 1017 10 16 0.00 0.00
4:56 pm 16:56 Sunny 88 31.1 60 15.6 39 39 S 13 20 30.01 1016 10 16 0.00 0.00
5:56 pm 17:56 Sunny 88 31.1 60 15.6 39 39 S 13 20 30.00 1016 10 16 0.00 0.00
6:56 pm 18:56 Sunny 86 30 60 15.6 42 42 S 10 17 29.98 1015 10 16 0.00 0.00
7:56 pm 19:56 Sunny 81 27.2 63 17.2 54 54 SSE 13 20 29.97 1015 10 16 0.00 0.00
8:56 pm 20:56 Clear 76 24.4 64 17.8 67 67 SSE 10 17 29.98 1015 10 16 0.00 0.00
9:56 pm 21:56 Clear 73 22.8 64 17.8 74 74 SSE 13 20 29.99 1016 10 16 0.00 0.00
10:56 pm 22:56 Clear 71 21.7 65 18.3 81 81 SSE 12 19 30.01 1016 10 16 0.00 0.00
11:56 pm 23:56 Clear 70 21.1 65 18.3 84 84 SSE 15 24 30.00 1016 10 16 0.00 0.00

Powered by AerisWeather